Hourly Weather Bashmakovo

Today, 19 June, Saturday

Time Temperature Precipitation Wind Pressure Humidity
00:00 +14°C° 0 mm 2 mps 750 mmHg 93%
01:00 +14°C° 0 mm 2 mps 750 mmHg 93%
02:00 +14°C° 0 mm 2 mps 750 mmHg 94%
03:00 +14°C° 0 mm 2 mps 750 mmHg 93%
04:00 +15°C° 0 mm 2 mps 750 mmHg 92%
05:00 +15°C° 0 mm 2 mps 750 mmHg 91%
06:00 +17°C° 0 mm 2 mps 750 mmHg 84%
07:00 +19°C° 0 mm 3 mps 750 mmHg 78%
08:00 +21°C° 0 mm 3 mps 750 mmHg 72%
09:00 +22°C° 0 mm 3 mps 750 mmHg 69%
10:00 +24°C° 0 mm 3 mps 750 mmHg 67%
11:00 +25°C° 0 mm 3 mps 750 mmHg 64%
12:00 +26°C° 0 mm 3 mps 749 mmHg 63%
13:00 +26°C° 0 mm 3 mps 749 mmHg 62%
14:00 +27°C° 0 mm 3 mps 749 mmHg 61%
15:00 +26°C° 0 mm 3 mps 749 mmHg 63%
16:00 +26°C° 0 mm 3 mps 748 mmHg 66%
17:00 +26°C° 0 mm 3 mps 748 mmHg 69%
18:00 +24°C° 0 mm 2 mps 748 mmHg 76%
19:00 +23°C° 0 mm 2 mps 748 mmHg 83%
20:00 +20°C° 0 mm 2 mps 748 mmHg 90%
21:00 +19°C° 0 mm 2 mps 748 mmHg 91%
22:00 +18°C° 0 mm 2 mps 748 mmHg 93%
23:00 +18°C° 0 mm 2 mps 748 mmHg 94%

Tomorrow, 20 June, Sunday

Time Temperature Precipitation Wind Pressure Humidity
00:00 +17°C° 0 mm 2 mps 748 mmHg 94%
01:00 +16°C° 0 mm 2 mps 748 mmHg 94%
02:00 +16°C° 0 mm 2 mps 748 mmHg 93%
03:00 +16°C° 0 mm 2 mps 748 mmHg 92%
04:00 +16°C° 0 mm 2 mps 748 mmHg 91%
05:00 +16°C° 0 mm 2 mps 748 mmHg 90%
06:00 +18°C° 0 mm 2 mps 748 mmHg 83%
07:00 +20°C° 0 mm 3 mps 748 mmHg 76%
08:00 +21°C° 0 mm 3 mps 748 mmHg 69%
09:00 +24°C° 0 mm 3 mps 748 mmHg 66%
10:00 +25°C° 0 mm 4 mps 748 mmHg 62%
11:00 +26°C° 0 mm 4 mps 748 mmHg 59%
12:00 +26°C° 0 mm 4 mps 747 mmHg 58%
13:00 +27°C° 0 mm 4 mps 747 mmHg 57%
14:00 +27°C° 0 mm 4 mps 747 mmHg 56%
15:00 +26°C° 0 mm 4 mps 747 mmHg 61%
16:00 +26°C° 0 mm 3 mps 747 mmHg 65%
17:00 +26°C° 0 mm 3 mps 746 mmHg 70%
18:00 +24°C° 0 mm 3 mps 746 mmHg 76%
19:00 +21°C° 0 mm 3 mps 746 mmHg 82%
20:00 +20°C° 0 mm 2 mps 746 mmHg 88%
21:00 +19°C° 0 mm 2 mps 746 mmHg 89%
22:00 +19°C° 0 mm 2 mps 746 mmHg 90%
23:00 +18°C° 0 mm 3 mps 746 mmHg 91%

Day after tomorrow, 21 June, Monday

Time Temperature Precipitation Wind Pressure Humidity
00:00 +18°C° 0 mm 3 mps 746 mmHg 90%
01:00 +18°C° 0 mm 3 mps 746 mmHg 90%
02:00 +18°C° 0 mm 2 mps 746 mmHg 90%
03:00 +18°C° 0 mm 3 mps 746 mmHg 89%
04:00 +18°C° 0 mm 3 mps 745 mmHg 88%
05:00 +18°C° 0 mm 3 mps 745 mmHg 88%
06:00 +20°C° 0 mm 4 mps 745 mmHg 81%
07:00 +22°C° 0 mm 4 mps 745 mmHg 75%
08:00 +23°C° 0 mm 5 mps 745 mmHg 69%
09:00 +26°C° 0 mm 5 mps 745 mmHg 66%
10:00 +27°C° 0 mm 5 mps 745 mmHg 63%
11:00 +28°C° 0 mm 5 mps 745 mmHg 60%
12:00 +28°C° 0 mm 5 mps 745 mmHg 60%
13:00 +28°C° 0 mm 5 mps 745 mmHg 61%
14:00 +29°C° 0 mm 5 mps 745 mmHg 61%
15:00 +28°C° 0 mm 4 mps 745 mmHg 66%
16:00 +28°C° 0 mm 4 mps 745 mmHg 71%
17:00 +27°C° 0 mm 4 mps 745 mmHg 76%
18:00 +26°C° 0 mm 4 mps 745 mmHg 80%
19:00 +25°C° 0 mm 4 mps 745 mmHg 85%
20:00 +22°C° 0 mm 3 mps 745 mmHg 90%
21:00 +22°C° 0 mm 3 mps 745 mmHg 91%
22:00 +21°C° 0 mm 3 mps 745 mmHg 91%
23:00 +20°C° 0 mm 3 mps 745 mmHg 92%

22 June, Tuesday

Time Temperature Precipitation Wind Pressure Humidity
00:00 +20°C° 0 mm 3 mps 745 mmHg 92%
01:00 +19°C° 0 mm 3 mps 745 mmHg 92%
02:00 +19°C° 0 mm 3 mps 745 mmHg 93%
03:00 +19°C° 0 mm 3 mps 745 mmHg 90%
04:00 +19°C° 0 mm 3 mps 745 mmHg 88%
05:00 +20°C° 0 mm 3 mps 745 mmHg 85%
06:00 +21°C° 0 mm 4 mps 745 mmHg 80%
07:00 +23°C° 0 mm 4 mps 745 mmHg 74%
08:00 +26°C° 0 mm 5 mps 745 mmHg 68%
09:00 +27°C° 0 mm 5 mps 745 mmHg 65%
10:00 +28°C° 0 mm 5 mps 745 mmHg 62%
11:00 +29°C° 0 mm 5 mps 745 mmHg 59%
12:00 +30°C° 0 mm 5 mps 746 mmHg 59%
13:00 +30°C° 0 mm 5 mps 746 mmHg 59%
14:00 +32°C° 0 mm 5 mps 746 mmHg 59%
15:00 +30°C° 0 mm 5 mps 746 mmHg 63%
16:00 +30°C° 0 mm 4 mps 746 mmHg 66%
17:00 +29°C° 0 mm 4 mps 746 mmHg 70%
18:00 +28°C° 0 mm 4 mps 746 mmHg 77%
19:00 +26°C° 0 mm 3 mps 745 mmHg 84%
20:00 +24°C° 0 mm 3 mps 745 mmHg 90%
21:00 +24°C° 0 mm 3 mps 745 mmHg 91%
22:00 +22°C° 0 mm 3 mps 746 mmHg 92%
23:00 +21°C° 0 mm 2 mps 746 mmHg 93%

23 June, Wednesday

Time Temperature Precipitation Wind Pressure Humidity
00:00 +21°C° 0 mm 2 mps 746 mmHg 93%
01:00 +21°C° 0 mm 3 mps 746 mmHg 93%
02:00 +20°C° 0 mm 3 mps 746 mmHg 93%
03:00 +21°C° 0 mm 3 mps 746 mmHg 92%
04:00 +21°C° 0 mm 3 mps 746 mmHg 90%
05:00 +21°C° 0 mm 3 mps 746 mmHg 89%
06:00 +24°C° 0 mm 3 mps 746 mmHg 82%
07:00 +25°C° 0 mm 4 mps 746 mmHg 75%
08:00 +27°C° 0 mm 4 mps 746 mmHg 69%
09:00 +28°C° 0 mm 4 mps 747 mmHg 64%
10:00 +29°C° 0 mm 4 mps 747 mmHg 60%
11:00 +32°C° 0 mm 4 mps 747 mmHg 56%
12:00 +32°C° 0 mm 4 mps 747 mmHg 55%
13:00 +32°C° 0 mm 4 mps 747 mmHg 55%
14:00 +32°C° 0 mm 4 mps 747 mmHg 54%
15:00 +32°C° 0 mm 4 mps 747 mmHg 59%
16:00 +30°C° 0 mm 4 mps 747 mmHg 64%
17:00 +29°C° 0 mm 4 mps 747 mmHg 68%
18:00 +27°C° 0 mm 3 mps 747 mmHg 75%
19:00 +26°C° 0 mm 3 mps 747 mmHg 82%
20:00 +24°C° 0 mm 3 mps 747 mmHg 88%
21:00 +24°C° 0 mm 2 mps 747 mmHg 90%
22:00 +23°C° 0 mm 2 mps 747 mmHg 91%
23:00 +21°C° 0 mm 2 mps 747 mmHg 92%

24 June, Thursday

Time Temperature Precipitation Wind Pressure Humidity
00:00 +21°C° 0 mm 2 mps 747 mmHg 90%
01:00 +21°C° 0 mm 2 mps 747 mmHg 89%
02:00 +21°C° 0 mm 2 mps 747 mmHg 87%
03:00 +21°C° 0 mm 2 mps 747 mmHg 87%
04:00 +21°C° 0 mm 2 mps 747 mmHg 86%
05:00 +21°C° 0 mm 2 mps 747 mmHg 86%
06:00 +24°C° 0 mm 3 mps 747 mmHg 81%
07:00 +25°C° 0 mm 3 mps 747 mmHg 76%
08:00 +27°C° 0 mm 3 mps 748 mmHg 71%
09:00 +28°C° 0 mm 3 mps 748 mmHg 67%
10:00 +29°C° 0 mm 3 mps 748 mmHg 62%
11:00 +30°C° 0 mm 3 mps 748 mmHg 58%
12:00 +30°C° 0 mm 3 mps 748 mmHg 57%
13:00 +31°C° 0 mm 3 mps 748 mmHg 56%
14:00 +31°C° 0 mm 3 mps 747 mmHg 54%
15:00 +31°C° 0 mm 3 mps 747 mmHg 58%
16:00 +30°C° 0 mm 3 mps 747 mmHg 62%
17:00 +30°C° 0 mm 2 mps 747 mmHg 65%
18:00 +28°C° 0 mm 2 mps 747 mmHg 71%
19:00 +27°C° 0 mm 2 mps 747 mmHg 77%
20:00 +25°C° 0 mm 2 mps 746 mmHg 82%
21:00 +24°C° 0 mm 2 mps 746 mmHg 83%
22:00 +23°C° 0 mm 2 mps 747 mmHg 85%
23:00 +23°C° 0 mm 2 mps 747 mmHg 86%
Show more